CZ-6A DEB, 61352

Orbit data source: Space-Track

CZ-6A DEB, 61352 is space debris in LEO originally from a launch on Tue, 06 Aug 2024 UTC launched from the Taiyaun Space Center, China (TSC). Debris objects in space refer to the collection of defunct objects orbiting the Earth. Examples of debris include non-operational satellites, rocket bodies, and fragments generated from explosions, collisions, or faulty payload assembly.

Loading next visibility...
Identifier
61352, 2024-140VR
Orbit
LEO
Country
Flag of CNCN / PRC
Related business
Manufacturer
SAST
Mission
Spacecraft
Bus & Motor
Unknown
Mass
Unknown
Launch date (UTC)
2024-08-06 (1 year ago)
Launch vehicle
Unknown
Launch site
Taiyaun Space Center, China (TSC)
Object type
Payload
Rocket body
Debris
Shape & HBR
Unknown shape, 0.1 m
Radar Cross Section
Small (<0.1 m²)

Expand to show TLE details & history
Last TLE update: 7 hours ago

TLE from 7 hours ago
0 CZ-6A DEB
1 61352U 24140VR  25349.84889285  .00002431  00000-0  97942-3 0  9997
2 61352  88.9989 294.7704 0027978  29.3574 330.9185 14.27550227 66833
Epoch: 2025-12-15T20:22Z
TLE epoch observation values (Epoch: 2025-12-15T20:22:24.342Z)
Latitude
0.00001°
Longitude
-95.57259°
Altitude
785.454 km
Speed
7.47 km/s
True Right ascension
19h 39m 04s
True Declination
0° 00' 00"
Sunlit
Object was in daylight at epoch
Visualization orbit readout
Latitude
Unknown
Longitude
Unknown
Altitude
Unknown
Speed
Unknown
Apparent Right ascension
Unknown
Apparent Declination
Unknown
Sunlit
N/A
Visualization observer readout
Local Sidereal Time
02:28:03
Azimuth
Unknown
Elevation
Unknown
Doppler factor
Unknown
Orbital elements
Apogee altitude
816.946 km
Perigee altitude
776.797 km
Semi-major axis
7,175.009 km
Eccentricity
0.0028
Inclination
88.9989°
RAAN
294.7704°
Arg. of periapsis
29.3574°
True anomaly
330.76219°
Mean anomaly
330.9185°
Eccentric anomaly
330.84039°
Mean motion
3.57116 °/min
Orbital period
100.81 mins
BSTAR
0.00097942
Loading maneuver chart data...
Computing Atmospheric mass density...
Loading historical data...
Loading historical data...
Loading historical data...
Loading historical data...
Loading historical data...
Loading historical data...
Loading historical data...

Documentation

Showing up to 5 results
|